Location: Paris
(48.6709°N, 2.3750°E)
Time: 08:55:28
(UTC+02:00)

KKS-1 - Pass Details

Date: 04 July 2022
Orbit: 635 x 648 km, 98.2° (Epoch: 08 August)

Event Time Altitude Azimuth Distance (km) Brightness Sun altitude
Rises 23:19:04 0° 21° (NNE) 2,976 ? -10.5°
Reaches altitude 10° 23:21:28 10° 31° (NNE) 2,058 ? -10.7°
Maximum altitude 23:25:34 34° 97° (E) 1,064 ? -11.1°
Enters shadow 23:28:36 16° 155° (SSE) 1,683 ? -11.4°
